Plattsburgh, NY

1:08 AM EST on December 10, 2019 (GMT -0500)
Plattsburgh International

Weather History for KPBG - October, 2019

Change the Weather History Date:

Friday, October 4, 2019

  Actual Average Record
Temperature  
Mean Temperature 46 °F 52 °F  
Max Temperature 53 °F 62 °F 82 °F (1967)
Min Temperature 38 °F 42 °F 30 °F (1948)
Degree Days  
Heating Degree Days 20 13  
Month to date heating degree days 49 51  
Since 1 July heating degree days 241 286  
Cooling Degree Days 0 0  
Month to date cooling degree days 0 0  
Year to date cooling degree days 406 345  
Moisture  
Dew Point 40 °F    
Average Humidity 78    
Maximum Humidity 96    
Minimum Humidity 52    
Precipitation  
Precipitation T in - 0.75 in (1966)
Month to date precipitation 0.76 0.00  
Year to date precipitation 22.38  
Sea Level Pressure  
Sea Level Pressure 30.12 in    
Wind  
Wind Speed 8 mph ()    
Max Wind Speed 21 mph    
Max Gust Speed 26 mph    
Visibility 9.0 miles    
Events Rain    
T = Trace of Precipitation, MM = Missing Value Source: Averaged Metar Reports

Daily Weather History Graph

Daily Weather History Graph

Search for Another Location

Airport or City:

Astronomy

Oct. 04, 2019 Rise Set
Actual Time 6:55 AM EDT 6:29 PM EDT
Civil Twilight 6:26 AM EDT 6:58 PM EDT
Nautical Twilight 5:52 AM EDT 7:32 PM EDT
Astronomical Twilight 5:18 AM EDT 8:06 PM EDT
Moon 1:37 PM EDT (10/4) 10:42 PM EDT (10/4)
Length of Visible Light 12h 32m
Length of Day
11h 34m
Waxing Crescent, 39% of the Moon is Illuminated
Oct 4
Waxing Crescent
Oct 5
First Quarter
Oct 13
Full
Oct 21
Last Quarter
Oct 27
New

Hourly Weather History & Observations

Time (EDT) Temp. Windchill Dew Point Humidity Pressure Visibility Wind Dir Wind Speed Gust Speed Precip Events Conditions
12:23 AM 48.9 °F - 46.0 °F 90% 29.88 in 8.0 mi South 8.1 mph - 0.00 in Rain Light Rain
12:53 AM 48.0 °F - 46.9 °F 96% 29.89 in 7.0 mi Calm Calm - 0.00 in Rain Light Rain
1:53 AM 48.9 °F - 46.9 °F 93% 29.89 in 10.0 mi Calm Calm - 0.00 in   Overcast
2:08 AM 48.9 °F - 46.9 °F 93% 29.88 in 10.0 mi Calm Calm - N/A   Overcast
2:53 AM 48.9 °F - 46.0 °F 90% 29.89 in 10.0 mi Calm Calm - N/A   Overcast
3:12 AM 48.9 °F - 46.9 °F 93% 29.89 in 10.0 mi WSW 3.5 mph - N/A   Overcast
3:38 AM 48.9 °F - 46.0 °F 90% 29.90 in 10.0 mi Calm Calm - N/A   Overcast
3:53 AM 48.9 °F - 46.0 °F 90% 29.91 in 10.0 mi NNW 8.1 mph - N/A   Overcast
4:53 AM 46.9 °F - 44.1 °F 90% 29.96 in 5.0 mi NW 12.7 mph - N/A   Overcast
5:23 AM 46.0 °F 39.6 °F 43.0 °F 89% 29.98 in 5.0 mi NNW 15.0 mph 21.9 mph 0.00 in Rain Light Rain
5:30 AM 45.0 °F 37.4 °F 42.1 °F 90% 29.99 in 6.0 mi North 18.4 mph 26.5 mph 0.00 in Rain Light Rain
5:36 AM 45.0 °F 37.9 °F 42.1 °F 90% 29.99 in 7.0 mi NNW 16.1 mph 26.5 mph 0.00 in   Overcast
5:53 AM 44.1 °F 35.9 °F 41.0 °F 89% 30.01 in 5.0 mi NNW 19.6 mph - 0.00 in   Overcast
6:16 AM 43.0 °F 34.5 °F 41.0 °F 93% 30.03 in 5.0 mi NNW 19.6 mph - 0.00 in Rain Light Rain
6:53 AM 43.0 °F 34.8 °F 39.9 °F 89% 30.06 in 5.0 mi North 18.4 mph - 0.00 in Rain Light Rain
7:17 AM 43.0 °F 34.8 °F 39.0 °F 86% 30.07 in 10.0 mi NNW 18.4 mph 25.3 mph 0.00 in Rain Light Rain
7:53 AM 43.0 °F 37.2 °F 39.9 °F 89% 30.10 in 10.0 mi NNW 10.4 mph - 0.00 in   Overcast
8:01 AM 43.0 °F 36.8 °F 39.9 °F 89% 30.10 in 10.0 mi NNW 11.5 mph - N/A   Overcast
8:37 AM 43.0 °F 35.4 °F 39.9 °F 89% 30.12 in 10.0 mi North 16.1 mph 21.9 mph N/A   Overcast
8:53 AM 44.1 °F 37.7 °F 39.9 °F 85% 30.14 in 10.0 mi NNW 12.7 mph - N/A   Overcast
9:07 AM 44.1 °F 38.1 °F 39.0 °F 82% 30.15 in 10.0 mi NNW 11.5 mph - N/A   Overcast
9:53 AM 46.0 °F 39.3 °F 39.0 °F 76% 30.18 in 10.0 mi NNW 16.1 mph 21.9 mph N/A   Mostly Cloudy
10:28 AM 48.0 °F - 39.9 °F 74% 30.18 in 10.0 mi North 15.0 mph 23.0 mph N/A   Mostly Cloudy
10:53 AM 46.9 °F - 39.0 °F 74% 30.20 in 10.0 mi NNW 13.8 mph 24.2 mph N/A   Overcast
11:53 AM 50.0 °F - 37.9 °F 63% 30.20 in 10.0 mi North 9.2 mph - N/A   Overcast
12:53 PM 48.9 °F - 37.9 °F 66% 30.22 in 10.0 mi NNW 12.7 mph - N/A   Overcast
1:11 PM 50.0 °F - 37.9 °F 63% 30.21 in 10.0 mi NNW 13.8 mph 20.7 mph N/A   Overcast
1:53 PM 50.0 °F - 37.0 °F 61% 30.23 in 10.0 mi NNW 15.0 mph 20.7 mph N/A   Mostly Cloudy
2:53 PM 51.1 °F - 35.1 °F 54% 30.24 in 10.0 mi NW 13.8 mph 24.2 mph N/A   Overcast
3:53 PM 51.1 °F - 34.0 °F 52% 30.25 in 10.0 mi NW 12.7 mph 24.2 mph N/A   Overcast
4:53 PM 50.0 °F - 34.0 °F 54% 30.27 in 10.0 mi NNW 11.5 mph - N/A   Mostly Cloudy
5:53 PM 48.9 °F - 33.1 °F 54% 30.30 in 10.0 mi NW 8.1 mph - N/A   Overcast
6:53 PM 46.9 °F - 35.1 °F 63% 30.32 in 10.0 mi NW 5.8 mph - N/A   Overcast
7:53 PM 46.9 °F - 34.0 °F 61% 30.35 in 10.0 mi NW 9.2 mph - N/A   Overcast
8:53 PM 45.0 °F 41.8 °F 33.1 °F 63% 30.37 in 10.0 mi NW 5.8 mph - N/A   Overcast
9:53 PM 44.1 °F 40.8 °F 33.1 °F 65% 30.38 in 10.0 mi NW 5.8 mph - N/A   Overcast
10:53 PM 41.0 °F 36.4 °F 33.1 °F 73% 30.40 in 10.0 mi WNW 6.9 mph - N/A   Clear
11:53 PM 39.9 °F 35.8 °F 33.1 °F 77% 30.41 in 10.0 mi WNW 5.8 mph - N/A   Clear